Location: Doazon
(43.4500°N, 0.5500°W)
Time: 16:00:16
(UTC+00:00)

Landsat 7 - Pass Details

Date: 05 December 2025
Orbit: 680 x 682 km, 97.9° (Epoch: 19 January)

Event Time Altitude Azimuth Distance (km) Brightness Sun altitude
Rises 17:18:06 0° 156° (SSE) 3,029 7.1 -9.3°
Reaches altitude 10° 17:20:21 10° 153° (SSE) 2,119 6.2 -9.6°
Maximum altitude 17:24:54 61° 74° (ENE) 778 3.8 -10.4°
Drops below altitude 10° 17:29:31 10° 354° (N) 2,135 6.2 -11.2°
Sets 17:31:47 0° 351° (N) 3,055 7.0 -11.6°
